Date String (YYYY-MM-DD hh:mm:ss) UTC,Instrument flags,Ambient pressure (hPa),Sample flow (lpm),Bypass flow (lpm),Sample temperature (°C),Ambient temperature (°C),ASC tube jacket temperature (°C),LED temperature (°C),Box temperature (°C),Sample RH (%),Span deviation,Mass concentration (μg/m³),Mass concentration (μg/m³),Mass concentration (μg/m³)
DateTimeUTC,F1_M11,P_M11,Q1_M11,Q2_M11,T1_M11,T2_M11,T3_M11,T4_M11,T5_M11,U1_M11,ZSPAN_M11,X0_M11,X2_M11,X1_M11
2022-03-20 22:00:00,,0815.7,5.01,0.00,28.9,28.1,00.0,37.7,30.7,05.6,0000.0,0010.83,0004.13,0002.39
2022-03-20 22:01:00,,0815.7,4.99,0.00,28.9,28.1,00.0,37.7,30.7,05.5,0000.0,0011.08,0004.17,0002.40
2022-03-20 22:02:00,,0815.7,4.99,0.00,28.9,28.1,00.0,37.7,30.7,05.8,0000.0,0011.06,0004.22,0002.40
2022-03-20 22:03:00,,0815.7,5.02,0.00,28.9,28.1,00.0,37.8,30.7,06.2,0000.0,0010.74,0004.25,0002.39
2022-03-20 22:04:00,,0815.7,4.99,0.00,28.9,28.1,00.0,37.8,30.7,06.6,0000.0,0010.42,0004.23,0002.38
2022-03-20 22:05:00,,0815.6,5.00,0.00,28.9,28.1,00.0,37.8,30.7,06.4,0000.0,0010.95,0004.21,0002.38
2022-03-20 22:06:00,,0815.6,5.01,0.00,28.9,28.2,00.0,37.8,30.6,06.2,0000.0,0011.05,0004.24,0002.42
2022-03-20 22:07:00,,0815.7,4.99,0.00,28.9,28.1,00.0,37.8,30.6,06.1,0000.0,0010.92,0004.25,0002.45
2022-03-20 22:08:00,,0815.7,5.02,0.00,28.8,28.1,00.0,37.8,30.5,06.1,0000.0,0011.13,0004.29,0002.46
2022-03-20 22:09:00,,0815.6,4.99,0.00,28.8,28.1,00.0,37.8,30.5,06.0,0000.0,0012.02,0004.32,0002.46
2022-03-20 22:10:00,,0815.9,5.01,0.00,28.8,28.0,00.0,37.8,30.5,06.2,0000.0,0011.93,0004.30,0002.46
2022-03-20 22:11:00,,0815.9,4.99,0.00,28.8,28.0,00.0,37.8,30.4,05.9,0000.0,0011.86,0004.26,0002.47
2022-03-20 22:12:00,,0816.0,5.00,0.00,28.7,28.0,00.0,37.8,30.4,05.9,0000.0,0012.24,0004.28,0002.49
2022-03-20 22:13:00,,0816.1,4.99,0.00,28.7,27.9,00.0,37.8,30.4,05.8,0000.0,0012.31,0004.30,0002.52
2022-03-20 22:14:00,,0816.0,5.02,0.00,28.7,27.9,00.0,37.8,30.4,05.9,0000.0,0012.33,0004.29,0002.53
2022-03-20 22:15:00,,0815.6,4.99,0.00,28.7,27.9,00.0,37.8,30.4,05.9,0000.0,0012.48,0004.35,0002.56
2022-03-20 22:16:00,,0815.6,5.01,0.00,28.7,27.9,00.0,37.7,30.3,06.0,0000.0,0012.02,0004.36,0002.56
2022-03-20 22:17:00,,0815.6,4.99,0.00,28.7,27.9,00.0,37.7,30.3,05.8,0000.0,0012.15,0004.32,0002.54
2022-03-20 22:18:00,,0815.7,4.99,0.00,28.6,27.9,00.0,37.7,30.3,05.9,0000.0,0013.07,0004.32,0002.54
2022-03-20 22:19:00,,0815.6,5.01,0.00,28.6,27.9,00.0,37.7,30.3,06.0,0000.0,0013.38,0004.32,0002.55
2022-03-20 22:20:00,,0815.6,4.99,0.00,28.6,27.9,00.0,37.7,30.3,06.5,0000.0,0012.65,0004.34,0002.57
2022-03-20 22:21:00,,0815.6,4.99,0.00,28.6,27.8,00.0,37.7,30.3,06.2,0000.0,0012.69,0004.38,0002.60
2022-03-20 22:22:00,,0815.6,5.01,0.00,28.6,27.7,00.0,37.7,30.3,06.3,0000.0,0012.69,0004.39,0002.61
2022-03-20 22:23:00,,0815.6,4.99,0.00,28.6,27.7,00.0,37.7,30.3,06.3,0000.0,0012.24,0004.36,0002.61
2022-03-20 22:24:00,,0815.6,5.02,0.00,28.6,27.7,00.0,37.7,30.3,06.4,0000.0,0011.99,0004.38,0002.62
2022-03-20 22:25:00,,0815.9,4.98,0.00,28.6,27.7,00.0,37.7,30.3,06.1,0000.0,0011.89,0004.34,0002.65
2022-03-20 22:26:00,,0815.9,5.01,0.00,28.6,27.8,00.0,37.6,30.3,06.2,0000.0,0011.79,0004.31,0002.67
2022-03-20 22:27:00,,0816.0,4.98,0.00,28.6,27.8,00.0,37.6,30.3,06.2,0000.0,0011.53,0004.29,0002.69
2022-03-20 22:28:00,,0816.0,5.02,0.00,28.6,27.8,00.0,37.6,30.4,05.9,0000.0,0010.93,0004.29,0002.71
2022-03-20 22:29:00,,0816.0,4.98,0.00,28.6,27.8,00.0,37.6,30.4,05.9,0000.0,0009.83,0004.28,0002.71
2022-03-20 22:30:00,,0816.0,5.00,0.00,28.6,27.9,00.0,37.6,30.4,05.9,0000.0,0009.29,0004.28,0002.72
2022-03-20 22:31:00,,0816.0,5.00,0.00,28.7,27.9,00.0,37.6,30.4,05.9,0000.0,0009.24,0004.27,0002.72
2022-03-20 22:32:00,,0815.9,5.00,0.00,28.7,27.9,00.0,37.6,30.4,05.8,0000.0,0009.18,0004.24,0002.72
2022-03-20 22:33:00,,0815.8,4.99,0.00,28.7,28.0,00.0,37.7,30.5,05.8,0000.0,0009.15,0004.22,0002.71
2022-03-20 22:34:00,,0815.4,5.02,0.00,28.7,28.0,00.0,37.7,30.5,05.9,0000.0,0009.13,0004.22,0002.70
2022-03-20 22:35:00,,0815.4,5.00,0.00,28.7,28.0,00.0,37.7,30.5,05.9,0000.0,0009.32,0004.18,0002.69
2022-03-20 22:36:00,,0815.4,4.99,0.00,28.8,28.0,00.0,37.7,30.5,06.1,0000.0,0009.60,0004.20,0002.69
2022-03-20 22:37:00,,0815.3,5.01,0.00,28.8,28.1,00.0,37.7,30.6,06.0,0000.0,0009.79,0004.24,0002.68
2022-03-20 22:38:00,,0815.3,5.00,0.00,28.8,28.1,00.0,37.7,30.6,05.9,0000.0,0009.97,0004.32,0002.67
2022-03-20 22:39:00,,0815.3,5.01,0.00,28.8,28.1,00.0,37.7,30.6,06.1,0000.0,0010.02,0004.34,0002.67
2022-03-20 22:40:00,,0815.3,4.99,0.00,28.8,28.1,00.0,37.7,30.6,05.9,0000.0,0010.04,0004.35,0002.69
2022-03-20 22:41:00,,0815.3,4.99,0.00,28.9,28.1,00.0,37.7,30.6,05.8,0000.0,0010.09,0004.34,0002.69
2022-03-20 22:42:00,,0815.4,5.02,0.00,28.9,28.2,00.0,37.8,30.7,05.9,0000.0,0010.34,0004.44,0002.70
2022-03-20 22:43:00,,0815.3,4.99,0.00,28.9,28.2,00.0,37.8,30.7,06.0,0000.0,0010.54,0004.49,0002.70
2022-03-20 22:44:00,,0815.3,4.99,0.00,28.9,28.2,00.0,37.8,30.8,05.9,0000.0,0011.52,0004.53,0002.71
2022-03-20 22:45:00,,0815.3,5.01,0.00,28.9,28.2,00.0,37.8,30.8,05.9,0000.0,0012.63,0004.53,0002.71
2022-03-20 22:46:00,,0815.3,4.99,0.00,29.0,28.2,00.0,37.8,30.8,05.8,0000.0,0012.60,0004.48,0002.68
2022-03-20 22:47:00,,0815.3,5.01,0.00,29.0,28.2,00.0,37.8,30.8,05.8,0000.0,0012.25,0004.47,0002.66
2022-03-20 22:48:00,,0815.3,4.99,0.00,29.0,28.2,00.0,37.9,30.8,05.9,0000.0,0012.38,0004.52,0002.66
2022-03-20 22:49:00,,0815.3,5.01,0.00,29.0,28.3,00.0,37.9,30.8,06.0,0000.0,0012.62,0004.49,0002.65
2022-03-20 22:50:00,,0815.3,4.99,0.00,29.0,28.3,00.0,37.9,30.8,06.1,0000.0,0012.39,0004.42,0002.64
2022-03-20 22:51:00,,0815.3,4.99,0.00,29.1,28.3,00.0,37.9,30.9,06.0,0000.0,0012.39,0004.41,0002.62
2022-03-20 22:52:00,,0815.3,5.01,0.00,29.1,28.3,00.0,37.9,30.9,06.2,0000.0,0012.59,0004.41,0002.59
2022-03-20 22:53:00,,0815.3,5.00,0.00,29.1,28.3,00.0,37.9,30.9,05.9,0000.0,0012.40,0004.33,0002.57
2022-03-20 22:54:00,,0815.3,4.98,0.00,29.1,28.4,00.0,37.9,30.9,05.9,0000.0,0012.44,0004.21,0002.54
2022-03-20 22:55:00,,0815.3,5.01,0.00,29.1,28.4,00.0,38.0,30.9,05.9,0000.0,0012.64,0004.17,0002.51
2022-03-20 22:56:00,,0815.3,5.00,0.00,29.1,28.4,00.0,38.0,30.9,05.8,0000.0,0011.00,0004.17,0002.49
2022-03-20 22:57:00,,0815.3,5.00,0.00,29.1,28.4,00.0,38.0,30.9,05.9,0000.0,0010.89,0004.20,0002.49
2022-03-20 22:58:00,,0815.2,5.00,0.00,29.2,28.4,00.0,38.0,31.0,05.8,0000.0,0010.93,0004.22,0002.49
2022-03-20 22:59:00,,0815.3,4.99,0.00,29.2,28.4,00.0,38.0,31.0,05.9,0000.0,0011.16,0004.16,0002.47
